Precipitable_Water
1.30 1.32 1.35 1.39 1.43 1.40 1.43 1.42 1.39 1.40 1.39 1.36 1.31 1.22 1.17 1.18 1.08 0.93 0.79 0.68 0.62 0.59 0.55 0.55 0.68 0.76 0.84 0.82 0.74 0.76 0.74 0.74
1.27 1.34 1.34 1.40 1.42 1.40 1.45 1.48 1.45 1.42 1.38 1.33 1.30 1.23 1.22 1.18 1.08 0.93 0.79 0.67 0.62 0.57 0.53 0.54 0.66 0.75 0.85 0.81 0.75 0.75 0.76 0.77
1.28 1.34 1.35 1.38 1.40 1.42 1.43 1.48 1.49 1.46 1.41 1.36 1.32 1.26 1.24 1.19 1.06 0.93 0.78 0.68 0.63 0.56 0.51 0.54 0.64 0.76 0.86 0.83 0.76 0.73 0.76 0.80
1.20 1.28 1.32 1.34 1.35 1.37 1.40 1.44 1.47 1.47 1.43 1.38 1.30 1.25 1.24 1.17 1.07 0.92 0.79 0.71 0.62 0.54 0.50 0.57 0.63 0.80 0.87 0.82 0.77 0.74 0.77 0.81
1.16 1.24 1.33 1.30 1.29 1.31 1.35 1.38 1.39 1.40 1.38 1.34 1.28 1.27 1.22 1.16 1.05 0.93 0.81 0.72 0.59 0.53 0.52 0.58 0.63 0.79 0.82 0.80 0.78 0.76 0.78 0.83
1.16 1.26 1.34 1.34 1.35 1.30 1.30 1.28 1.30 1.30 1.30 1.29 1.27 1.23 1.18 1.11 1.00 0.88 0.76 0.66 0.54 0.50 0.53 0.61 0.67 0.80 0.82 0.81 0.80 0.78 0.78 0.77
1.13 1.25 1.34 1.34 1.35 1.34 1.30 1.27 1.28 1.28 1.29 1.32 1.30 1.22 1.15 1.09 0.98 0.86 0.75 0.64 0.53 0.54 0.61 0.64 0.68 0.78 0.85 0.84 0.82 0.80 0.76 0.73
1.15 1.19 1.32 1.38 1.32 1.32 1.31 1.30 1.32 1.34 1.35 1.32 1.31 1.25 1.17 1.08 0.96 0.85 0.74 0.63 0.56 0.59 0.64 0.67 0.71 0.78 0.82 0.83 0.81 0.80 0.75 0.70
1.10 1.16 1.26 1.37 1.34 1.35 1.33 1.30 1.29 1.32 1.34 1.35 1.32 1.27 1.20 1.09 0.99 0.87 0.75 0.65 0.63 0.66 0.71 0.73 0.74 0.79 0.80 0.82 0.82 0.80 0.75 0.70
1.09 1.18 1.21 1.30 1.42 1.37 1.34 1.31 1.30 1.27 1.32 1.32 1.32 1.28 1.23 1.12 1.02 0.91 0.77 0.65 0.66 0.69 0.71 0.73 0.75 0.76 0.77 0.78 0.78 0.78 0.73 0.67
1.08 1.14 1.14 1.21 1.35 1.44 1.40 1.37 1.32 1.29 1.31 1.32 1.29 1.30 1.26 1.16 1.07 0.98 0.81 0.66 0.68 0.73 0.73 0.72 0.73 0.74 0.75 0.75 0.74 0.72 0.64 0.61
1.03 1.07 1.10 1.18 1.28 1.34 1.46 1.45 1.40 1.34 1.30 1.29 1.27 1.24 1.22 1.15 1.11 1.04 0.87 0.74 0.73 0.77 0.74 0.75 0.72 0.71 0.72 0.71 0.71 0.68 0.65 0.62
1.04 1.06 1.11 1.18 1.20 1.18 1.17 1.23 1.34 1.33 1.28 1.30 1.24 1.22 1.21 1.15 1.11 1.06 0.91 0.80 0.79 0.81 0.78 0.74 0.72 0.73 0.66 0.67 0.68 0.69 0.69 0.67
1.00 1.03 1.10 1.13 1.16 1.15 1.18 1.15 1.22 1.23 1.26 1.28 1.25 1.25 1.22 1.17 1.11 1.06 0.96 0.85 0.82 0.81 0.79 0.76 0.73 0.73 0.62 0.60 0.54 0.61 0.66 0.66
0.97 1.00 1.08 1.12 1.17 1.23 1.26 1.28 1.31 1.26 1.16 1.13 1.15 1.19 1.17 1.15 1.13 1.09 0.99 0.90 0.84 0.84 0.82 0.76 0.69 0.74 0.70 0.58 0.53 0.51 0.60 0.67
0.94 1.01 1.06 1.13 1.21 1.17 1.14 1.05 1.00 1.09 1.09 1.07 1.05 1.12 1.13 1.12 1.10 1.11 1.05 0.96 0.89 0.85 0.84 0.78 0.74 0.67 0.69 0.67 0.64 0.60 0.53 0.54
0.95 1.01 1.06 1.12 1.16 1.18 1.15 1.13 1.18 1.20 1.16 1.14 1.19 1.14 1.10 1.12 1.10 1.10 1.09 1.00 0.92 0.86 0.84 0.80 0.78 0.71 0.68 0.66 0.63 0.61 0.60 0.56
0.97 1.03 1.05 1.12 1.14 1.15 1.15 1.14 1.16 1.15 1.11 1.06 1.11 1.13 1.08 1.05 1.11 1.10 1.12 1.06 0.96 0.89 0.85 0.82 0.79 0.78 0.74 0.69 0.63 0.58 0.54 0.55
1.02 1.06 1.05 1.14 1.17 1.17 1.17 1.18 1.20 1.15 1.12 1.05 1.08 1.09 1.07 1.01 1.04 1.04 1.05 1.09 1.05 0.96 0.88 0.84 0.81 0.78 0.76 0.71 0.71 0.66 0.62 0.57
0.95 1.04 1.07 1.15 1.15 1.18 1.22 1.24 1.22 1.21 1.20 1.13 1.13 1.12 1.12 1.11 1.06 1.05 1.05 1.11 1.09 1.05 0.96 0.89 0.86 0.84 0.81 0.78 0.73 0.69 0.65 0.59
Wind_Speed
20 21 21 21 21 21 22 22 23 23 23 22 21 20 18 17 16 15 13 12 11 10 10 9 8 5 5 4 3 2 1 1
21 22 22 22 21 21 22 23 23 23 23 22 22 20 19 19 17 16 15 14 13 12 11 10 9 7 7 6 4 3 1 0
22 23 23 22 22 22 22 23 24 24 23 23 22 21 20 19 18 17 16 15 14 13 12 12 10 8 8 7 5 4 3 2
21 24 24 23 23 22 23 23 24 24 24 23 22 22 21 20 19 18 17 16 15 14 13 13 11 10 9 8 7 6 5 4
21 25 25 25 23 23 23 24 24 25 25 24 23 23 22 22 21 20 18 17 16 16 15 14 12 12 11 10 9 8 7 6
22 25 26 26 24 24 24 24 25 25 26 26 25 24 23 23 22 21 20 19 18 17 17 16 14 14 13 12 11 10 9 8
24 25 28 28 27 25 25 26 26 26 27 26 27 26 25 24 23 23 21 21 20 19 18 18 16 16 15 14 13 12 11 10
26 27 29 30 29 27 26 26 26 27 27 27 27 27 27 26 25 24 23 22 21 20 20 19 18 17 17 16 15 14 13 12
28 28 30 31 31 29 28 27 28 28 28 28 29 28 28 28 27 26 25 24 23 22 20 19 19 18 18 18 17 16 14 14
30 29 30 32 33 32 30 29 29 29 29 28 29 30 30 29 28 28 27 26 25 24 22 21 21 20 20 19 18 17 16 15
32 31 32 32 33 33 33 32 31 30 31 30 30 30 31 31 30 30 29 28 27 26 25 24 22 21 21 20 19 19 17 16
34 34 34 33 33 33 34 34 34 32 33 33 32 32 33 33 32 32 31 30 29 28 27 25 24 22 21 21 20 20 19 18
35 35 35 35 34 34 34 36 36 36 35 36 35 34 34 34 33 33 33 33 32 30 28 26 25 24 21 20 20 21 21 20
36 37 37 37 37 36 36 36 37 37 37 37 38 37 36 35 35 35 35 34 34 33 31 28 27 27 24 22 21 21 22 22
40 39 40 40 39 38 37 36 37 37 37 38 39 39 39 38 37 37 37 36 36 35 34 33 30 30 29 25 23 24 23 23
42 42 42 42 42 41 41 39 39 40 39 40 41 42 41 40 39 39 39 38 38 37 36 35 34 33 32 30 27 24 24 23
44 44 44 44 43 44 43 42 41 40 40 40 40 42 43 43 42 41 41 40 40 40 39 38 37 36 35 32 30 28 26 25
47 47 46 45 45 44 44 43 42 40 41 41 41 42 43 45 44 43 43 43 42 42 41 41 39 39 38 36 34 31 30 28
47 49 48 47 46 46 46 44 43 44 42 42 41 41 42 45 46 45 44 44 44 43 43 43 42 41 41 39 38 37 34 31
44 47 49 48 47 46 45 45 43 43 43 43 42 42 42 43 46 46 45 44 45 45 45 45 44 44 43 41 40 39 37 35
Wind_Direction
220 218 217 217 217 217 216 214 212 211 211 211 212 213 213 214 215 215 215 215 214 214 212 209 208 205 192 186 182 170 126 69
224 220 219 219 218 217 216 214 211 211 212 212 213 214 215 216 217 217 216 215 215 215 214 213 212 212 201 200 199 197 219 302
225 220 220 220 219 218 216 214 213 212 212 212 213 216 216 217 219 218 217 217 216 217 217 216 215 214 206 207 213 222 238 258
228 222 221 220 219 218 217 215 214 213 215 214 216 217 218 219 218 218 219 220 219 219 219 217 217 215 213 218 227 232 244 253
230 223 221 220 221 219 219 219 217 217 218 218 219 218 219 218 218 219 221 221 221 220 219 220 222 222 220 226 232 239 247 253
230 224 221 221 223 223 222 221 221 221 221 221 220 220 220 220 221 222 223 223 223 222 222 225 228 226 226 230 236 241 248 252
230 226 223 223 223 225 226 224 224 224 224 223 222 223 223 223 224 224 225 225 224 224 226 231 233 229 230 234 238 244 249 253
232 230 227 225 226 227 228 227 226 226 226 226 225 225 226 226 226 227 227 226 226 228 232 235 235 232 234 236 240 246 251 254
233 232 229 227 227 229 230 229 228 228 228 228 228 227 228 228 228 229 228 227 227 229 232 235 235 235 236 238 242 247 251 255
234 233 231 229 229 230 232 231 230 231 230 230 229 229 229 229 230 230 229 228 229 232 233 236 237 238 238 240 243 247 250 253
234 233 232 231 231 232 233 233 232 233 232 232 231 230 230 231 232 232 230 229 231 231 234 236 237 238 239 241 245 246 247 250
234 234 233 232 232 233 234 234 235 235 235 235 233 233 232 232 232 233 231 230 231 232 233 235 237 238 238 241 245 247 247 249
233 233 233 232 232 232 234 236 236 236 237 236 235 235 234 233 234 234 233 232 232 231 232 232 234 236 237 243 247 249 249 251
236 233 232 233 235 237 238 238 238 238 237 237 237 237 236 235 234 234 233 233 232 232 232 232 237 234 241 243 248 252 251 252
239 237 235 234 235 237 238 238 239 239 238 238 237 238 237 237 236 235 234 234 234 233 234 234 236 236 235 247 250 255 249 253
242 239 238 236 235 235 235 238 240 242 242 240 238 238 238 238 238 236 236 235 236 236 236 236 237 238 237 246 250 250 252 255
244 241 239 238 236 236 236 239 241 242 243 242 239 237 238 238 238 237 237 237 237 237 237 238 239 240 240 245 248 250 252 255
243 241 239 238 238 237 236 237 238 240 241 242 242 239 237 238 238 239 238 237 238 238 239 240 241 242 242 245 246 249 252 254
244 242 239 238 238 238 237 237 238 240 241 242 242 241 240 238 237 238 239 238 239 239 240 241 243 243 243 246 247 249 250 253
242 241 239 238 237 238 238 237 239 240 241 243 244 243 243 240 237 238 239 239 240 240 241 243 244 245 245 246 248 249 249 250